Location: Pensacola
(30.4142°N, 87.2155°W)
Time: 12:26:21
(UTC-05:00)

FO-29 - Visible Passes

Search period start: 31 May 2023 00:00
Search period end: 10 June 2023 00:00
Orbit: 799 x 1322 km, 98.5° (Epoch: 30 May)

Date Brightness Start Highest point End Pass type
(mag) Time Alt. Az. Time Alt. Az. Time Alt. Az.
31 May 9.3 05:21:31 10° N 05:26:54 84° WNW 05:32:51 10° SSW visible
01 Jun 11.1 04:27:02 10° NE 04:31:45 29° E 04:36:51 10° SSE visible
02 Jun 9.4 05:16:16 10° NNE 05:21:44 89° E 05:27:48 10° SSW visible
03 Jun 11.2 04:21:55 10° NE 04:26:35 27° E 04:31:38 10° SSE visible
04 Jun 9.5 05:11:02 10° NNE 05:16:34 82° ESE 05:22:45 10° S visible
05 Jun 11.4 04:16:50 10° NE 04:21:26 25° E 04:26:24 10° SSE visible
06 Jun 9.7 05:05:48 10° NNE 05:11:24 75° ESE 05:17:43 10° S visible
07 Jun 11.5 04:11:45 10° NE 04:16:16 23° E 04:21:10 10° SSE visible
08 Jun 9.8 05:00:35 10° NNE 05:06:16 69° ESE 05:12:40 10° S visible
09 Jun 11.6 04:06:41 10° NE 04:11:07 22° E 04:15:55 10° SSE visible
